Change the Weather History Date:

Sunday, August 31, 2014

  Actual Average Record
Temperature  
Mean Temperature 68 °F -  
Max Temperature 71 °F 76 °F 94 °F (1991)
Min Temperature 64 °F 52 °F 38 °F (1976)
Cooling Degree Days 2    
Growing Degree Days 18 (Base 50)    
Moisture  
Dew Point 65 °F    
Average Humidity 92    
Maximum Humidity 100    
Minimum Humidity 83    
Precipitation  
Precipitation 2.11 in - - ()
Sea Level Pressure  
Sea Level Pressure 30.04 in    
Wind  
Wind Speed 9 mph (SSW)    
Max Wind Speed 22 mph    
Max Gust Speed 29 mph    
Visibility 7 miles    
Events Thunderstorm    
Averages and records for this station are not official NWS values.
T = Trace of Precipitation, MM = Missing Value Source: NWS Daily Summary

Daily Weather History Graph

Daily Weather History Graph

Search for Another Location

Airport or City:

Trip Planner

Search our weather history database for the weather conditions in past years. The results will help you decide how hot, cold, wet, or windy it might be!

Date:

Astronomy

Aug. 31, 2014 Rise Set
Actual Time 6:41 AM EDT 7:52 PM EDT
Civil Twilight 6:12 AM EDT 8:21 PM EDT
Nautical Twilight 5:37 AM EDT 8:55 PM EDT
Astronomical Twilight 5:01 AM EDT 9:31 PM EDT
Moon 12:32 PM EDT (8/31) 10:59 PM EDT (8/31)
Length of Visible Light 14h 08m
Length of Day
13h 11m
Waxing Crescent, 32% of the Moon is Illuminated
Aug 31
Waxing Crescent
Sep 2
First Quarter
Sep 8
Full
Sep 15
Last Quarter
Sep 24
New

Hourly Weather History & Observations

Time (EDT) Temp. Dew Point Humidity Pressure Visibility Wind Dir Wind Speed Gust Speed Precip Events Conditions
12:15 AM 71.6 °F 66.2 °F 83% 30.05 in 8.0 mi SSW 21.9 mph 28.8 mph 0.04 in Thunderstorm Overcast
12:35 AM 69.8 °F 66.2 °F 88% 30.04 in 10.0 mi South 9.2 mph 21.9 mph 0.08 in Thunderstorm Thunderstorm
12:55 AM 69.8 °F 64.4 °F 83% 30.06 in 7.0 mi SSW 12.7 mph 19.6 mph 0.27 in Thunderstorm Thunderstorm
1:15 AM 69.8 °F 64.4 °F 83% 30.04 in 10.0 mi South 5.8 mph - 0.04 in   Overcast
1:35 AM 68.0 °F 64.4 °F 88% 30.06 in 10.0 mi WNW 13.8 mph - 0.04 in   Overcast
1:55 AM 68.0 °F 64.4 °F 88% 30.05 in 10.0 mi SSW 4.6 mph - 0.04 in   Overcast
2:15 AM 68.0 °F 64.4 °F 88% 30.05 in 10.0 mi South 5.8 mph - N/A   Mostly Cloudy
2:35 AM 68.0 °F 66.2 °F 94% 30.05 in 10.0 mi South 8.1 mph - N/A   Mostly Cloudy
2:55 AM 69.8 °F 66.2 °F 88% 30.04 in 9.0 mi SSW 8.1 mph - N/A   Mostly Cloudy
3:15 AM 69.8 °F 66.2 °F 88% 30.04 in 10.0 mi South 4.6 mph - N/A   Overcast
3:35 AM 69.8 °F 66.2 °F 88% 30.04 in 9.0 mi South 6.9 mph - N/A   Overcast
3:55 AM 69.8 °F 66.2 °F 88% 30.04 in 10.0 mi South 8.1 mph - N/A   Overcast
4:15 AM 69.8 °F 66.2 °F 88% 30.05 in 10.0 mi SSW 10.4 mph 16.1 mph N/A   Mostly Cloudy
4:35 AM 69.8 °F 66.2 °F 88% 30.04 in 10.0 mi SSW 8.1 mph - N/A   Overcast
4:55 AM 69.8 °F 64.4 °F 83% 30.04 in 10.0 mi SSW 8.1 mph - N/A   Mostly Cloudy
5:15 AM 68.0 °F 66.2 °F 94% 30.03 in 10.0 mi SSW 6.9 mph - N/A   Mostly Cloudy
5:35 AM 68.0 °F 64.4 °F 88% 30.03 in 10.0 mi SSW 5.8 mph - N/A   Overcast
5:55 AM 68.0 °F 64.4 °F 88% 30.04 in 10.0 mi South 8.1 mph - N/A   Overcast
6:15 AM 66.2 °F 64.4 °F 94% 30.04 in 10.0 mi South 6.9 mph - N/A   Overcast
6:35 AM 66.2 °F 64.4 °F 94% 30.05 in 10.0 mi South 5.8 mph - N/A   Overcast
6:55 AM 66.2 °F 64.4 °F 94% 30.05 in 9.0 mi South 8.1 mph - N/A   Overcast
7:15 AM 66.2 °F 64.4 °F 94% 30.05 in 5.0 mi South 6.9 mph - 0.01 in   Overcast
7:35 AM 66.2 °F 64.4 °F 94% 30.05 in 5.0 mi South 5.8 mph - 0.02 in   Overcast
7:55 AM 66.2 °F 64.4 °F 94% 30.05 in 5.0 mi South 8.1 mph - 0.03 in   Mostly Cloudy
8:15 AM 66.2 °F 64.4 °F 94% 30.05 in 5.0 mi South 9.2 mph - N/A   Overcast
8:35 AM 66.2 °F 64.4 °F 94% 30.05 in 5.0 mi South 9.2 mph - N/A   Mostly Cloudy
8:55 AM 66.2 °F 64.4 °F 94% 30.05 in 6.0 mi South 9.2 mph - N/A   Overcast
9:15 AM 66.2 °F 64.4 °F 94% 30.05 in 8.0 mi SSW 8.1 mph - N/A   Overcast
9:35 AM 66.2 °F 64.4 °F 94% 30.05 in 7.0 mi SSW 5.8 mph - N/A   Overcast
9:55 AM 66.2 °F 64.4 °F 94% 30.05 in 8.0 mi SSW 8.1 mph - N/A   Overcast
10:15 AM 66.2 °F 64.4 °F 94% 30.05 in 5.0 mi South 6.9 mph - 0.02 in   Overcast
10:35 AM 66.2 °F 64.4 °F 94% 30.05 in 5.0 mi South 6.9 mph - 0.04 in   Overcast
10:55 AM 66.2 °F 64.4 °F 94% 30.05 in 8.0 mi SSW 6.9 mph - 0.04 in   Overcast
11:15 AM 66.2 °F 64.4 °F 94% 30.04 in 5.0 mi SSW 8.1 mph - 0.05 in   Overcast
11:35 AM 66.2 °F 66.2 °F 100% 30.04 in 5.0 mi SW 6.9 mph - 0.06 in   Overcast
11:55 AM 66.2 °F 66.2 °F 100% 30.04 in 6.0 mi SSW 8.1 mph - 0.06 in   Overcast
12:15 PM 68.0 °F 66.2 °F 94% 30.04 in 6.0 mi SSW 8.1 mph - N/A   Overcast
12:35 PM 68.0 °F 66.2 °F 94% 30.03 in 7.0 mi SSW 10.4 mph - N/A   Overcast
12:55 PM 69.8 °F 66.2 °F 88% 30.04 in 8.0 mi SSW 10.4 mph - N/A   Overcast
1:15 PM 68.0 °F 66.2 °F 94% 30.04 in 4.0 mi SSW 6.9 mph - N/A   Overcast
1:35 PM 68.0 °F 66.2 °F 94% 30.04 in 3.0 mi SSW 6.9 mph - 0.01 in Thunderstorm Overcast
1:55 PM 68.0 °F 66.2 °F 94% 30.04 in 5.0 mi WSW 9.2 mph - 0.09 in   Overcast
2:15 PM 64.4 °F 62.6 °F 94% 30.05 in 2.5 mi WNW 3.5 mph - 0.43 in   Mostly Cloudy
2:35 PM 66.2 °F 64.4 °F 94% 30.05 in 10.0 mi West 3.5 mph - 0.56 in   Overcast
2:55 PM 66.2 °F 64.4 °F 94% 30.04 in 10.0 mi West 5.8 mph - 0.58 in   Overcast
3:15 PM 68.0 °F 64.4 °F 88% 30.03 in 10.0 mi West 3.5 mph - N/A   Mostly Cloudy
3:35 PM 66.2 °F 64.4 °F 94% 30.03 in 3.0 mi West 4.6 mph - 0.31 in   Overcast
3:55 PM 66.2 °F 64.4 °F 94% 30.03 in 5.0 mi WSW 6.9 mph - 0.56 in   Mostly Cloudy
4:15 PM 68.0 °F 66.2 °F 94% 30.03 in 10.0 mi SW 3.5 mph - 0.02 in   Overcast
4:35 PM 68.0 °F 64.4 °F 88% 30.03 in 5.0 mi West 8.1 mph - 0.26 in   Overcast
4:55 PM 68.0 °F 66.2 °F 94% 30.03 in 6.0 mi SW 4.6 mph - 0.42 in   Overcast
5:15 PM 68.0 °F 66.2 °F 94% 30.03 in 7.0 mi WSW 8.1 mph - 0.02 in   Overcast
5:35 PM 68.0 °F 66.2 °F 94% 30.03 in 10.0 mi SW 6.9 mph - 0.02 in   Overcast
5:55 PM 69.8 °F 66.2 °F 88% 30.03 in 9.0 mi SSW 4.6 mph - 0.02 in   Overcast
6:15 PM 69.8 °F 66.2 °F 88% 30.03 in 10.0 mi SW 4.6 mph - N/A   Overcast
6:35 PM 69.8 °F 66.2 °F 88% 30.03 in 10.0 mi SW 4.6 mph - N/A   Overcast
6:55 PM 69.8 °F 66.2 °F 88% 30.03 in 10.0 mi SSW 8.1 mph - N/A   Scattered Clouds
7:15 PM 69.8 °F 66.2 °F 88% 30.03 in 10.0 mi SSW 5.8 mph - N/A   Partly Cloudy
7:35 PM 69.8 °F 66.2 °F 88% 30.03 in 10.0 mi SSW 5.8 mph - N/A   Clear
7:55 PM 69.8 °F 66.2 °F 88% 30.03 in 8.0 mi South 4.6 mph - N/A   Mostly Cloudy
8:15 PM 68.0 °F 66.2 °F 94% 30.03 in 9.0 mi SSW 5.8 mph - N/A   Mostly Cloudy
8:35 PM 68.0 °F 66.2 °F 94% 30.03 in 9.0 mi South 4.6 mph - N/A   Partly Cloudy
8:55 PM 68.0 °F 66.2 °F 94% 30.04 in 8.0 mi SSW 4.6 mph - N/A   Mostly Cloudy
9:15 PM 68.0 °F 66.2 °F 94% 30.04 in 9.0 mi SSW 3.5 mph - N/A   Overcast
9:35 PM 66.2 °F 66.2 °F 100% 30.04 in 2.5 mi South 4.6 mph - N/A   Mostly Cloudy
9:55 PM 66.2 °F 64.4 °F 94% 30.04 in 0.5 mi South 3.5 mph - N/A   Overcast
10:15 PM 66.2 °F 64.4 °F 94% 30.04 in 0.2 mi South 3.5 mph - N/A   Overcast
10:35 PM 66.2 °F 64.4 °F 94% 30.04 in 1.2 mi South 4.6 mph - N/A   Overcast
10:55 PM 66.2 °F 66.2 °F 100% 30.04 in 3.0 mi SSW 4.6 mph - N/A   Overcast
11:15 PM 66.2 °F 66.2 °F 100% 30.04 in 0.2 mi South 3.5 mph - N/A   Overcast
11:35 PM 66.2 °F 66.2 °F 100% 30.04 in 0.2 mi South 4.6 mph - N/A   Overcast
11:55 PM 66.2 °F 66.2 °F 100% 30.04 in 0.2 mi South 3.5 mph - N/A   Overcast